FW1829 Weather Reports


time (UTC)temp
F
wind
direction
speed
knots
gust
knots
rain 1hr
in
rain 24hr
in
rain mn
in
humidity
%
barometer
mb
20260906200051 96 160 3.5 16.5 0.00 0.00 0.00 36 1012.4
20260906194547 96 174 6.1 12.2 0.00 0.00 0.00 37 1012.6
20260906193044 95 126 2.6 7.8 0.00 0.00 0.00 38 1012.9
20260906191545 93 146 2.6 10.4 0.00 0.00 0.00 42 1013.4
20260906190039 93 103 2.6 8.7 0.00 0.00 0.00 41 1013.6
20260906184537 91 101 2.6 7.0 0.00 0.00 0.00 46 1014.0
20260906183131 90 103 0.9 5.2 0.00 0.00 0.00 48 1014.0
20260906181533 89 102 0.9 6.1 0.00 0.00 0.00 48 1014.3
20260906180031 89 96 2.6 10.4 0.00 0.00 0.00 47 1014.7
20260906174526 89 101 3.5 9.6 0.00 0.00 0.00 51 1015.0
20260906173023 85 96 3.5 8.7 0.00 0.00 0.00 56 1015.5
20260906171522 84 98 3.5 8.7 0.00 0.00 0.00 57 1015.9
20260906170022 84 96 2.6 9.6 0.00 0.00 0.00 58 1015.9
20260906164521 84 99 0.9 7.8 0.00 0.00 0.00 58 1016.1
20260906163020 84 89 2.6 9.6 0.00 0.00 0.00 58 1016.2
20260906161519 84 96 2.6 8.7 0.00 0.00 0.00 58 1016.2
20260906160019 84 94 2.6 9.6 0.00 0.00 0.00 59 1016.0
20260906154517 84 95 4.3 10.4 0.00 0.00 0.00 58 1015.9
20260906153018 85 86 1.7 10.4 0.00 0.00 0.00 60 1015.8
20260906151511 84 104 3.5 9.6 0.00 0.00 0.00 60 1016.0
20260906150008 83 101 1.7 7.0 0.00 0.00 0.00 62 1016.0
20260906144510 82 91 1.7 7.0 0.00 0.00 0.00 62 1015.9
20260906143005 79 90 0.9 3.5 0.00 0.00 0.00 64 1015.8
20260906141500 78 90 0.0 7.8 0.00 0.00 0.00 66 1015.7
20260906140106 77 148 0.9 7.0 0.00 0.00 0.00 68 1015.6
20260906134556 77 151 0.0 1.7 0.00 0.00 0.00 70 1014.8
20260906133117 76 151 0.0 1.7 0.00 0.00 0.00 71 1014.4
20260906131610 75 181 0.0 1.7 0.00 0.00 0.00 73 1014.2
20260906130056 73 181 0.0 0.9 0.00 0.00 0.00 74 1014.1
20260906124548 72 180 0.0 0.9 0.00 0.00 0.00 73 1013.8
20260906123050 72 181 0.0 0.9 0.00 0.00 0.00 73 1013.5
20260906121549 72 180 0.0 1.7 0.00 0.00 0.00 73 1013.3
20260906120055 72 181 0.0 0.0 0.00 0.00 0.00 72 1013.3
20260906114542 72 181 0.0 0.9 0.00 0.00 0.00 72 1013.1
20260906113041 73 181 0.0 0.0 0.00 0.00 0.00 71 1012.9
20260906111540 73 181 0.0 0.9 0.00 0.00 0.00 71 1012.7
20260906110038 73 181 0.0 0.9 0.00 0.00 0.00 70 1012.6
20260906104538 74 181 0.0 3.5 0.00 0.00 0.00 69 1012.4
20260906103035 74 181 0.9 3.5 0.00 0.00 0.00 69 1012.5
20260906101534 74 181 0.0 0.0 0.00 0.00 0.00 68 1012.7
20260906100035 74 181 0.0 0.9 0.00 0.00 0.00 67 1012.7
20260906094530 75 181 0.0 0.9 0.00 0.00 0.00 65 1012.7
20260906093036 76 181 0.0 0.0 0.00 0.00 0.00 63 1012.7
20260906091523 77 181 0.0 0.9 0.00 0.00 0.00 61 1012.7
20260906090020 78 181 0.9 3.5 0.00 0.00 0.00 59 1012.9
20260906084516 80 181 0.0 2.6 0.00 0.00 0.00 56 1012.9
20260906083017 80 181 0.0 2.6 0.00 0.00 0.00 55 1012.7
20260906081520 80 181 1.7 6.1 0.00 0.00 0.00 55 1012.7
20260906080013 81 181 1.7 6.1 0.00 0.00 0.00 55 1012.6
20260906074513 81 180 2.6 6.1 0.00 0.00 0.00 55 1012.5
20260906073011 81 180 3.5 6.1 0.00 0.00 0.00 55 1012.7
20260906071510 81 178 2.6 8.7 0.00 0.00 0.00 55 1012.4
20260906070010 81 175 3.5 7.0 0.00 0.00 0.00 56 1012.3
20260906064511 81 168 4.3 10.4 0.00 0.00 0.00 56 1012.3
20260906063005 80 150 4.3 9.6 0.00 0.00 0.00 59 1012.4
20260906061503 80 132 1.7 6.1 0.00 0.00 0.00 60 1012.4
20260906060003 79 130 0.0 6.1 0.00 0.00 0.00 62 1012.4
20260906054559 80 126 0.0 6.1 0.00 0.00 0.00 62 1012.4
20260906053057 80 124 0.0 2.6 0.00 0.00 0.00 61 1012.4
20260906051558 80 124 0.9 5.2 0.00 0.00 0.00 61 1012.2
20260906050054 80 124 0.9 3.5 0.00 0.00 0.00 62 1012.3
20260906044551 78 124 0.9 7.0 0.00 0.00 0.00 65 1012.2
20260906043051 77 126 0.9 2.6 0.00 0.00 0.00 68 1012.1
20260906041550 77 126 0.9 3.5 0.00 0.00 0.00 68 1012.0
20260906040051 78 126 0.0 3.5 0.00 0.00 0.00 68 1012.1
20260906034548 78 126 0.0 5.2 0.00 0.00 0.00 67 1012.2
20260906033048 78 126 0.0 2.6 0.00 0.00 0.00 66 1012.4
20260906031549 78 125 0.0 3.5 0.00 0.00 0.00 66 1012.1
20260906030051 79 126 0.0 1.7 0.00 0.00 0.00 66 1011.9
20260906024547 79 125 0.0 7.0 0.00 0.00 0.00 65 1011.7
20260906023046 79 124 0.0 5.2 0.00 0.00 0.00 64 1011.3
20260906021548 80 124 0.0 3.5 0.00 0.00 0.00 63 1011.0
20260906020044 80 124 0.9 5.2 0.00 0.00 0.00 62 1010.7
20260906014546 81 123 0.0 5.2 0.00 0.00 0.00 62 1010.5
20260906013043 82 124 0.9 7.0 0.00 0.00 0.00 61 1010.5
20260906011546 82 127 0.9 4.3 0.00 0.00 0.00 59 1010.5
20260906010042 83 115 0.9 7.8 0.00 0.00 0.00 58 1010.2
20260906004543 84 123 1.7 6.1 0.00 0.00 0.00 57 1010.4
20260906003140 85 134 2.6 9.6 0.00 0.00 0.00 54 1010.5
20260906001540 86 101 3.5 14.8 0.00 0.00 0.00 55 1010.7
20260906000041 86 96 5.2 14.8 0.00 0.00 0.00 53 1010.8
20260905234537 88 92 6.1 11.3 0.00 0.00 0.00 50 1010.7
20260905233053 88 101 7.0 10.4 0.00 0.00 0.00 52 1010.6
20260905231549 89 102 7.0 13.0 0.00 0.00 0.00 50 1010.6
20260905230037 89 101 6.1 13.9 0.00 0.00 0.00 50 1010.3
20260905224544 94 86 7.0 13.9 0.00 0.00 0.00 42 1010.1
20260905223034 101 148 2.6 8.7 0.00 0.00 0.00 35 1009.6
20260905221538 100 163 3.5 10.4 0.00 0.00 0.00 30 1009.4
20260905220033 100 158 4.3 9.6 0.00 0.00 0.00 31 1009.2
20260905214529 100 165 6.1 12.2 0.00 0.00 0.00 31 1009.3
20260905213033 99 144 2.6 9.6 0.00 0.00 0.00 32 1009.6
20260905211531 100 175 2.6 11.3 0.00 0.00 0.00 31 1009.7
20260905210030 99 163 4.3 14.8 0.00 0.00 0.00 32 1009.8
20260905204523 98 169 6.1 8.7 0.00 0.00 0.00 34 1010.0
20260905203020 97 169 5.2 6.1 0.00 0.00 0.00 34 1010.2
20260905201526 97 173 2.6 11.3 0.00 0.00 0.00 35 1010.4